www.pogodaiklimat.ru

Архив погоды в Ла-Плате (Аргентина)

Время
(UTC), дата
16 11.07
17 11.07
18 11.07
19 11.07
20 11.07
21 11.07
22 11.07
23 11.07
00 12.07
01 12.07
02 12.07
03 12.07
04 12.07
05 12.07
06 12.07
07 12.07
08 12.07
09 12.07
10 12.07
11 12.07
12 12.07
13 12.07
14 12.07
15 12.07
16 12.07
17 12.07
18 12.07
19 12.07
20 12.07
21 12.07
22 12.07
23 12.07
00 13.07
02 13.07
03 13.07
04 13.07
05 13.07
06 13.07
07 13.07
08 13.07
09 13.07
10 13.07
11 13.07
12 13.07
13 13.07
14 13.07
15 13.07
16 13.07
17 13.07
18 13.07
19 13.07
20 13.07
21 13.07
22 13.07
23 13.07
00 14.07
01 14.07
02 14.07
03 14.07
04 14.07
05 14.07
06 14.07
07 14.07
08 14.07
09 14.07
10 14.07
11 14.07
12 14.07
13 14.07
14 14.07
15 14.07
16 14.07
17 14.07
18 14.07
19 14.07
20 14.07
21 14.07
22 14.07
23 14.07
00 15.07
01 15.07
02 15.07
03 15.07
04 15.07
05 15.07
06 15.07
07 15.07
08 15.07
09 15.07
10 15.07
11 15.07
12 15.07
13 15.07
14 15.07
15 15.07
16 15.07
17 15.07
18 15.07
19 15.07
20 15.07
21 15.07
22 15.07
23 15.07
00 16.07
01 16.07
02 16.07
03 16.07
04 16.07
05 16.07
06 16.07
07 16.07
08 16.07
09 16.07
10 16.07
11 16.07
12 16.07
13 16.07
14 16.07
15 16.07
16 16.07
17 16.07
18 16.07
19 16.07
20 16.07
21 16.07
22 16.07
23 16.07
00 17.07
01 17.07
02 17.07
03 17.07
04 17.07
05 17.07
06 17.07
07 17.07
08 17.07
09 17.07
10 17.07
11 17.07
12 17.07
13 17.07
14 17.07
15 17.07
16 17.07
17 17.07
18 17.07
19 17.07
20 17.07
21 17.07
22 17.07
23 17.07
00 18.07
01 18.07
02 18.07
03 18.07
04 18.07
05 18.07
06 18.07
07 18.07
08 18.07
09 18.07
10 18.07
11 18.07
12 18.07
13 18.07
14 18.07
15 18.07
Ветер
(напр.,м/с)
Видим. Явления Облачность Т
(С)
Тd
(С)
f
(%)
Тe
(С)
Тes
(С)
Комфортность P
(гПа)
Po
(гПа)
Тmin
(С)
Tmax
(С)
R
(мм)
R24
(мм)
S
(см)
ЮЗ 2 8000 м дым 1/0
[Ci]
+10.3 -0.4 47 +10 +17 1027.9 1025.0
Ю 2 10 км 1/0
[Ci]
+10.7 -0.4 46 +10 +16 1027.6 1024.8
Ю 3 10 км {мгла} 1/0
[Ci fib]
+10.9 -1.1 43 +9 +13 1027.5 1024.6
Ю 3 10 км 1/0
[Ci]
+11.1 -1.5 41 +10 +11 1027.9 1025.0
Ю 2 10 км 1/0
[Ci]
+10.5 -1.4 43 +10 +11 1028.3 1025.4
Ю 1 10 км 1/0
[Ci]
+8.5 +0.3 56 +9 +9 1028.9 1026.0
З 1 7000 м дым ясно +5.0 +0.6 73 +5 +5 1029.4 1026.5
штиль 0 5000 м дым ясно +3.8 +0.1 77 +3 +3 1030.4 1027.4
З 1 5000 м дымка туман ясно +2.8 +0.4 84 +1 +1 1031.2 1028.2 -3.0 +11.5
З 1 3500 м дымка ясно +2.5 +0.4 86 +1 +1 1031.8 1028.9
З 1 2000 м дымка туман ясно +1.2 +0.4 94 -1 -1 1032.3 1029.4
З 1 2000 м дымка ясно +1.0 -0.4 90 -1 -1 1032.8 1030.0
З 1 2000 м дымка туман ясно +1.0 -1.0 86 -1 -1 1033.1 1030.2
СЗ 2 1500 м дымка туман ясно +1.0 -0.7 88 -2 -2 1033.2 1030.4
З 1 5000 м дымка ясно +0.6 -0.5 92 -2 -2 1033.5 1030.6
З 1 7000 м дымка ясно -0.1 -1.0 94 -2 -2 1033.3 1030.4
З 2 8000 м дымка ясно -0.4 -1.3 94 -4 -4 1033.5 1030.6
З 1 8000 м дымка ясно -0.7 -1.9 92 -3 -3 1033.6 1030.8
З 1 8000 м дымка ясно -1.4 -1.4 100 -4 -4 1033.9 1031.0
З 1 5000 м дымка ясно -1.3 -1.6 98 -4 -4 1034.4 1031.4
штиль 0 6000 м дымка ясно -0.9 -1.5 96 -2 -1 1035.3 1032.4 -1.9 +2.8
ЮЗ 2 7000 м дымка ясно +4.5 +3.0 90 +2 +4 1035.9 1033.0
ЮЗ 4 7000 м дымка ясно +8.1 +5.0 81 +5 +9 1036.4 1033.6
З 3 10 км ясно +11.1 -0.1 46 +10 +16 1036.2 1033.3
ЮЗ 3 10 км ясно +12.8 -0.5 40 +12 +18 1035.3 1032.4
З 2 10 км ясно +12.9 -2.2 35 +13 +19 1034.8 1032.0
З 3 10 км ясно +13.7 -1.5 35 +13 +17 1034.5 1031.6
З 2 10 км ясно +13.4 -1.3 36 +13 +16 1034.4 1031.6
З 2 10 км ясно +13.2 -0.9 38 +13 +14 1034.6 1031.7
штиль 0 10 км ясно +10.8 +2.5 56 +11 +11 1035.0 1032.1
штиль 0 10 км ясно +8.2 +2.5 67 +8 +8 1035.1 1032.2
штиль 0 7000 м дымка ясно +4.9 +3.2 89 +4 +4 1035.5 1032.5
штиль 0 6000 м дымка ясно +2.5 +2.0 96 +1 +1 1035.5 1032.5 -1.1 +14.0
штиль 0 5000 м дымка ясно +1.0 +0.7 98 -0 -0 1035.2 1032.4
штиль 0 4000 м местами туман поземный туман ясно +0.2 +0.2 100 -1 -1 1035.4 1032.5
штиль 0 900 м туман, небо видно ясно -0.2 -0.5 98 -2 -2 1035.2 1032.4
штиль 0 700 м туман, небо видно ясно -0.6 -1.2 96 -2 -2 1034.9 1032.0
штиль 0 500 м туман, небо видно ясно -1.0 -1.4 97 -2 -2 1034.8 1032.0
З 2 100 м туман, небо видно ясно +0.5 +0.5 100 -3 -3 1034.6 1031.7
З 1 100 м туман, небо видно ясно +1.4 +1.4 100 -1 -1 1034.5 1031.6
штиль 0 100 м туман, небо видно ясно -0.4 -0.7 98 -2 -2 1034.5 1031.6
штиль 0 300 м туман, небо видно ясно -1.6 -2.1 96 -3 -3 1034.5 1031.6
штиль 0 500 м туман, небо видно ясно -1.4 -1.9 96 -3 -3 1035.0 1032.0
ЮВ 1 800 м туман, небо видно ясно -1.2 -1.8 96 -2 -1 1035.1 1032.1 -3.5 +2.5
ЮЗ 1 2000 м в посл. час туман туман ясно +4.8 +0.1 72 +4 +7 1035.3 1032.4
З 1 6000 м дым {мгла} ясно +9.2 +3.2 66 +9 +14 1035.4 1032.5
ЮЗ 2 6000 м дым {мгла} ясно +11.2 +1.9 53 +11 +18 1035.4 1032.5
Ю 2 9000 м дым ясно +12.6 -1.2 38 +13 +20 1034.3 1031.4
З 2 10 км ясно +13.0 -2.0 35 +13 +20 1033.6 1030.8
СЗ 2 10 км {мгла} ясно +14.0 -2.9 31 +14 +19 1032.9 1030.0
С 1 10 км ясно +13.4 +2.0 46 +14 +16 1032.6 1029.7
СВ 2 10 км ясно +11.6 +0.9 48 +11 +11 1032.6 1029.7
штиль 0 9000 м дым ясно +8.9 +2.0 62 +8 +8 1032.3 1029.4
СВ 1 6000 м дым ясно +5.8 +2.1 77 +5 +5 1032.5 1029.6
З 1 6000 м дым ясно +3.2 +0.6 83 +3 +3 1032.7 1029.7
штиль 0 6000 м дымка ясно +1.6 +0.5 92 0 0 1032.4 1029.4 -1.4 +14.0
штиль 0 8000 м дымка ясно +0.8 0.0 94 -1 -1 1032.7 1029.8
штиль 0 5000 м дымка ясно -0.1 -1.0 94 -1 -1 1032.8 1030.0
В 1 3000 м дымка ясно +0.4 +0.1 98 -2 -2 1032.8 1030.0
штиль 0 300 м туман, небо видно ясно -1.0 -1.3 98 -2 -2 1032.4 1029.6
штиль 0 <100 м туман, небо видно ясно -1.7 -1.7 100 -3 -3 1032.2 1029.3
штиль 0 <100 м туман, небо видно ясно -2.4 -2.4 100 -4 -4 1032.4 1029.6
штиль 0 <100 м туман, небо видно ясно -2.7 -2.7 100 -4 -4 1032.1 1029.2
штиль 0 <100 м туман, небо видно ясно -2.9 -2.9 100 -4 -4 1031.8 1028.9
штиль 0 100 м туман, небо видно ясно -3.6 -3.6 100 -5 -5 1031.9 1029.0
штиль 0 100 м туман, небо видно ясно -3.6 -3.6 100 -5 -5 1032.1 1029.2
штиль 0 <100 м туман, небо видно ясно -4.4 -4.4 100 -6 -6 1032.5 1029.6
штиль 0 <100 м туман, небо видно ясно -4.6 -4.6 100 -6 -5 1032.7 1029.7 -5.2 +1.6
штиль 0 1000 м в посл. час туман туман ясно +2.3 -3.3 66 +2 +5 1033.3 1030.4
СВ 1 7000 м дымка {туман} ясно +8.7 +5.9 83 +8 +14 1033.5 1030.6
СВ 1 10 км {туман} ясно +10.5 +2.9 59 +10 +18 1033.1 1030.2
С 2 10 км ясно +12.5 +1.9 48 +12 +20 1032.4 1029.5
В 2 10 км ясно +12.8 +1.4 46 +13 +19 1031.7 1028.8
В 3 10 км {туман} ясно +13.3 +1.6 45 +13 +16 1031.2 1028.3
В 4 10 км ясно +12.5 +0.4 43 +11 +13 1031.2 1028.3
В 4 10 км ясно +11.1 +1.1 50 +9 +10 1031.3 1028.4
В 3 10 км ясно +8.5 +2.3 65 +6 +6 1031.7 1028.8
В 2 10 км ясно +6.5 +3.7 82 +4 +4 1032.2 1029.3
В 3 8000 м дымка ясно +4.8 +4.3 97 +1 +1 1032.5 1029.6
В 2 100 м туман, небо видно ясно +3.2 +3.2 100 -0 -0 1032.7 1029.7 -5.0 +13.4
В 2 8000 м в посл. час туман туман ясно +3.0 +3.0 100 0 0 1032.5 1029.6
В 2 8000 м дымка {туман} ясно +2.6 +2.6 100 -0 -0 1032.9 1030.0
В 1 9000 м дымка {туман} ясно +2.6 +2.6 100 +1 +1 1032.9 1030.0
В 1 100 м туман, небо видно ясно +2.5 +2.5 100 +1 +1 1032.7 1029.8
В 2 900 м туман, небо видно ясно +2.2 +2.2 100 -1 -1 1032.7 1029.8
СВ 1 100 м туман, небо видно ясно +1.4 +1.4 100 -1 -1 1032.5 1029.6
В 1 100 м туман, небо видно ясно +0.3 +0.3 100 -2 -2 1032.4 1029.6
В 1 <100 м туман, небо видно ясно +1.0 +1.0 100 -1 -1 1032.4 1029.6
СВ 1 <100 м туман, небо не видно ?/? -0.2 -0.2 100 -3 -3 1032.4 1029.6
В 1 <100 м туман, небо видно 1/0
[Ac und]
+0.4 +0.4 100 -2 -2 1032.7 1029.8
В 1 <100 м туман, небо видно 6/0
[Ac trans]
+0.6 +0.6 100 -2 -2 1033.0 1030.1
СВ 1 200 м туман, небо видно 8/0
[Ac und]
+2.9 +2.9 100 +1 +2 1033.4 1030.5 -1.2 +3.9
В 1 3000 м в посл. час туман туман 6/4 900 м
[Sc Ac trans]
+7.5 +7.5 100 +7 +9 1033.9 1031.0
С 3 8000 м дымка {туман} 8/5 900 м
[Sc Ac trans]
+11.9 +9.8 87 +10 +12 1034.4 1031.6
СВ 2 10 км {туман} 6/5 600 м
[Cu Sc Ac trans]
+14.1 +9.7 75 +14 +16 1034.1 1031.2
СВ 3 10 км 8/8 660 м
[Cu Sc]
+14.5 +9.1 70 +14 +15 1033.2 1030.4
СВ 3 10 км 8/8 660 м
[Cu Sc]
+14.8 +8.3 65 +14 +15 1032.3 1029.4
СВ 3 10 км {туман} 6/0
[Ac trans]
+15.0 +7.9 62 +14 +17 1031.8 1028.9
В 4 10 км 1/0
[Ac As]
+14.6 +6.9 60 +14 +15 1031.4 1028.5
В 3 10 км 1/0
[Ac As]
+13.9 +7.0 63 +13 +13 1031.1 1028.2
В 2 10 км 1/1 750 м
[Sc]
+11.3 +6.5 72 +10 +10 1031.0 1028.1
В 3 10 км 1/1 750 м
[Sc]
+8.4 +6.7 89 +6 +6 1030.7 1027.8
В 3 10 км ясно +8.4 +7.1 92 +6 +6 1030.7 1027.8
В 3 10 км ясно +7.4 +6.8 96 +5 +5 1030.6 1027.7 +2.6 +15.4
В 2 8000 м дымка ясно +6.1 +6.1 100 +4 +4 1030.8 1028.0
В 2 2000 м местами туман поземный ясно +5.3 +5.3 100 +3 +3 1031.1 1028.2
штиль 0 4000 м местами туман поземный ясно +4.0 +4.0 100 +3 +3 1030.6 1027.7
СВ 3 8000 м дымка {туман} ясно +5.4 +4.0 91 +2 +2 1030.0 1027.2
СВ 3 10 км ясно +7.0 +6.3 95 +4 +4 1029.3 1026.5
СВ 3 10 км {туман} ясно +7.3 +6.4 94 +4 +4 1028.8 1026.0
СВ 4 10 км ясно +7.8 +6.3 90 +5 +5 1028.2 1025.4
СВ 1 10 км ясно +5.7 +5.0 95 +4 +4 1028.4 1025.6
В 1 10 км местами туман поземный ясно +5.2 +5.0 99 +4 +4 1028.8 1026.0
штиль 0 300 м туман, небо видно ясно +3.2 +3.0 99 +2 +2 1029.1 1026.2
ЮВ 1 <100 м туман, небо видно ясно +2.5 +2.5 100 +1 +1 1029.3 1026.4
В 1 <100 м туман, небо видно ясно +3.8 +3.8 100 +2 +3 1029.4 1026.5 +0.8 +12.4
В 3 10 км в посл. час туман 1/0
[Ci fib]
+9.6 +9.0 96 +7 +10 1029.5 1026.6
СВ 3 10 км {туман} 1/0
[Ci fib]
+12.3 +8.5 78 +11 +15 1029.8 1026.9
СВ 3 10 км {туман} 3/0
[Ci fib]
+13.6 +8.7 72 +12 +17 1029.3 1026.4
С 2 10 км 8/1 750 м
[Cu hum Ci fib]
+15.0 +8.6 66 +15 +20 1028.8 1026.0
В 2 10 км 8/4 750 м
[Cu hum Ci fib]
+16.3 +9.5 64 +17 +20 1028.2 1025.4
ЮВ 2 10 км {туман} 9/0
[Cs]
+16.5 +9.5 63 +17 +20 1027.2 1024.4
В 2 10 км 9/0
[Cs]
+16.7 +9.7 63 +17 +19 1026.6 1023.8
СВ 3 10 км 9/0
[Cs]
+15.0 +9.9 72 +14 +15 1026.6 1023.8
В 2 10 км 9/0
[Cs]
+12.5 +9.2 80 +12 +12 1026.7 1023.8
В 3 10 км 10/0
[Cs]
+11.0 +8.8 86 +9 +9 1026.3 1023.4
Ю 1 10 км 10/0
[Cs]
+9.6 +8.4 92 +9 +9 1027.7 1024.8
штиль 0 10 км 8/0
[Cs]
+9.2 +8.4 95 +8 +8 1028.1 1025.2 +3.6 +17.0
ЮЗ 2 10 км 6/0
[Ac und]
+8.4 +7.6 95 +7 +7 1028.4 1025.6
штиль 0 10 км 5/0
[Ac und]
+8.2 +7.6 96 +7 +7 1028.1 1025.3
штиль 0 7000 м дымка ясно +7.6 +7.0 96 +7 +7 1027.3 1024.5
штиль 0 7000 м дымка ясно +7.3 +6.9 97 +6 +6 1026.8 1024.0
штиль 0 200 м туман, небо видно ясно +5.9 +5.9 100 +5 +5 1026.6 1023.8
штиль 0 600 м туман, небо видно ясно +5.6 +5.6 100 +4 +4 1026.4 1023.6
С 2 600 м туман, небо видно 5/0
[Ac und]
+6.9 +6.7 99 +5 +5 1025.6 1022.8
С 2 800 м туман, небо видно 6/0
[Ac und]
+7.1 +6.9 99 +5 +5 1025.0 1022.2
СЗ 2 600 м туман, небо видно ясно +8.2 +8.2 100 +6 +6 1024.8 1022.0
З 2 600 м туман, небо видно ясно +8.4 +8.4 100 +6 +6 1025.2 1022.4
З 2 100 м туман, небо видно 3/0
[Ac und]
+6.5 +6.5 100 +4 +4 1025.0 1022.1
З 1 2000 м в посл. час туман туман 5/0
[Ac As]
+8.6 +8.6 100 +8 +8 1025.3 1022.5 +4.0 +9.2
З 2 6000 м дымка {туман} 1/0
[Ac As]
+11.8 +9.9 88 +11 +14 1025.3 1022.5
З 3 8000 м дымка 3/0
[Cs]
+14.3 +9.7 74 +14 +18 1025.5 1022.8
З 3 10 км 1/0
[Ci fib]
+16.0 +9.3 64 +16 +22 1025.3 1022.5
З 3 10 км 4/3 900 м
[Cu hum Ci fib]
+17.2 +10.3 64 +17 +21 1023.9 1021.2
З 3 10 км 4/3 1050 м
[Cu hum Ci fib]
+17.9 +7.8 52 +18 +22 1023.2 1020.4
З 2 10 км 1/1 1200 м
[Cu hum Ci sp]
+18.3 +7.6 50 +19 +23 1021.9 1019.2
С 3 7000 м мгла 3/0
[Cs]
+17.3 +8.2 55 +17 +19 1021.4 1018.6
СЗ 3 7000 м мгла 6/0
[Cs]
+15.6 +7.4 58 +15 +16 1021.3 1018.5
С 1 5000 м дымка 6/0
[Cs]
+12.8 +8.4 75 +13 +13 1021.2 1018.4
С 1 5000 м дымка 3/0
[Cs]
+10.2 +7.9 86 +11 +11 1021.2 1018.4
СВ 1 3000 м дымка 3/0
[Ci sp]
+8.3 +6.8 90 +7 +7 1021.3 1018.4
штиль 0 5000 м дымка 3/0
[Ci sp]
+7.4 +7.2 99 +6 +6 1021.3 1018.5 +6.4 +18.3
СВ 2 7000 м дымка 8/0
[Cs]
+7.6 +6.7 94 +5 +5 1020.8 1018.0
СВ 2 8000 м дымка 6/0
[Cs]
+9.6 +8.2 91 +8 +8 1020.8 1018.0
В 1 10 км 1/0
[Ci fib]
+7.4 +7.2 99 +6 +6 1021.1 1018.4
СВ 2 10 км ясно +8.3 +7.7 96 +7 +7 1021.1 1018.3
СВ 2 10 км ясно +7.3 +7.3 100 +5 +5 1020.6 1017.8
С 1 10 км ясно +8.1 +7.7 97 +7 +7 1020.3 1017.5
штиль 0 100 м туман, небо видно ясно +6.2 +6.2 100 +5 +5 1020.4 1017.6
С 2 8000 м в посл. час туман туман ясно +5.3 +5.3 100 +3 +3 1019.8 1017.0
С 2 8000 м дымка {туман} ясно +6.0 +6.0 100 +4 +4 1019.8 1017.0
С 2 7000 м дымка ясно +8.2 +8.2 100 +6 +6 1020.1 1017.3
СВ 2 6000 м местами туман поземный туман 1/0
[Ci fib]
+8.3 +8.3 100 +7 +7 1020.3 1017.5
СВ 1 7000 м местами туман поземный туман 1/0
[Ci fib]
+7.7 +7.5 99 +7 +8 1020.5 1017.7 +4.3 +9.6
СВ 2 8000 м дымка {туман} 1/0
[Ci fib]
+12.1 +10.4 89 +11 +14 1020.9 1018.1
С 2 10 км 1/0
[Ci fib]
+15.2 +10.7 74 +15 +20 1021.3 1018.5
СЗ 3 10 км 1/1 600 м
[Cu hum Ci fib]
+17.0 +10.9 67 +17 +22 1021.1 1018.4
Местоположение метеостанции Ла-Плата (Аргентина): широта -34.96 долгота -57.90 высота над уровнем моря 19 м.
В архиве по умолчанию представлена погода в Ла-Плате за последнюю неделю. Архивные данные за месяц целиком и за предыдущие месяцы, начиная с января 2011 года, Вы можете получить, выбрав интересующий диапазон дат из раскрывающегося списка и нажав кнопку "Найти!".
*Определитесь, кто Вы:
Внимание! Время в таблицах - всемирное. Для получения местного времени необходимо прибавить поправку, которая равна -3 ч.
Некоторые строки с данными для отдельных станций могут быть выделены курсивом. Это означает, что фактические данные отсутствуют по различным причинам, а приведенные значения являются расчетными модельными данными для данного пункта наблюдений.
Смотрите также архив погоды в соседних городах и на ближайших метеорологических станциях:
Партнеры нашего сайта:      
Пояснения к столбцам:
  • Ветер - указаны скорость ветра в м/с - средняя за 10 мин, порывы в срок и между сроками (в фигурных скобках) и направление, откуда дует ветер: С - северный,
  • СВ - северо-восточный, В - восточный, ЮВ - юго-восточный, Ю - южный, ЮЗ - юго-западный, З - западный, СЗ - северо-западный.
  • Видимость - горизонтальная дальность видимости в метрах или километрах. При видимости от 1 до 10 км при отсутствии осадков обычно наблюдается дымка, при ухудшении видимости до 1 км и менее - туман. В сухую погоду видимость может ухудшаться дымом, пылью или мглою.
  • Явления - указаны атмосферные явления, наблюдавшиеся в срок или в последний час перед сроком; фигурными скобками обозначены явления, наблюдавшиеся между сроками (за 1-3 часа до срока); квадратными скобками обозначены град или гололедные отложения с указанием их диаметра в мм.
  • Облачность - указаны через наклонную черту общая и нижняя облачность в баллах и высота нижней границы облаков в метрах; квадратными скобками обозначены формы облаков: Ci - перистые, Cs - перисто-слоистые, Cc - перисто-кучевые, Ac - высококучевые, As - высокослоистые, Sc - слоисто-кучевые, Ns - слоисто-дождевые, Cu - кучевые, Cb - кучево-дождевые. Подробнее классификацию облаков см. в Атласе облаков (PDF).
  • T - Температура воздуха - температура, измеренная на высоте 2 м над землей.
  • Td - Температура точки росы - температура, при понижении до которой содержащийся в воздухе водяной пар достигнет насыщения.
  • f - Относительная влажность воздуха - влажноcть воздуха, измеренная на высоте 2 м над землей.
  • Te - Эффективная температура - температура, которую ощущает одетый по сезону человек в тени. Характеристика душности погоды. При расчете учитывается влияние влажности воздуха и скорости ветра на теплоощущения человека.
  • Tes - Эффективная температура на солнце - температура, которую ощущает человек, с поправкой на солнечный нагрев. Характеристика знойности погоды. Зависит от высоты солнца над горизонтом, облачности и скорости ветра. Ночью, в пасмурную погоду, а также при ветре 12 м/с и более поправка равна нулю.
  • P - Атмосферное давление - приведенное к уровню моря атмосферное давление.
  • Po - Атмосферное давление - измеренное на уровне метеостанции атмосферное давление.
  • Tmin - Минимальная температура - минимум температуры воздуха на высоте 2 м над землей.
  • Tmax - Максимальная температура - максимум температуры воздуха на высоте 2 м над землей.
  • R - Количество осадков - Количество выпавших осадков за период времени, мм. При наведении курсора мыши на число - период времени, за который выпало указанное количество осадков.
  • R24 - Количество осадков - Количество выпавших осадков за 24 часа, мм.
  • S - Снежный покров - Высота снежного покрова, см. При наведении курсора мыши на число - состояние снежного покрова и степень покрытия местности в баллах.